This is the latest recevied weather packets stored in our database for station/object KD0ISH. If no packets are shown the sender has not sent any weather packets the latest 10 day(s).
| Time | Temp. | Humidity | Pressure | Rain* | Wind** | Luminosity | Snow |
|---|---|---|---|---|---|---|---|
| 1777533285 | 6.11° C | 96% | 1019.9 hPa | 0 mm | - | 0 W/m² | - |
| 1777532982 | 6.11° C | 95% | 1019.6 hPa | 0 mm | - | 0 W/m² | - |
| 1777532679 | 6.11° C | 95% | 1020.2 hPa | 0 mm | - | 0 W/m² | - |
| 1777532376 | 6.11° C | 95% | 1019.9 hPa | 0 mm | - | 0 W/m² | - |
| 1777532072 | 6.11° C | 95% | 1020 hPa | 0 mm | - | 0 W/m² | - |
| 1777531768 | 6.67° C | 95% | 1020 hPa | 0 mm | - | 0 W/m² | - |
| 1777531464 | 6.67° C | 95% | 1019.9 hPa | 0 mm | - | 0 W/m² | - |
| 1777531162 | 6.67° C | 95% | 1020 hPa | 0 mm | - | 0 W/m² | - |
| 1777530860 | 6.67° C | 95% | 1020.2 hPa | 0 mm | - | 0 W/m² | - |
| 1777530557 | 6.67° C | 94% | 1020.2 hPa | 0 mm | - | 0 W/m² | - |
| 1777530254 | 6.67° C | 94% | 1020.2 hPa | 0 mm | - | 0 W/m² | - |
| 1777529950 | 6.67° C | 94% | 1020.4 hPa | 0 mm | - | 0 W/m² | - |
| 1777529648 | 7.22° C | 94% | 1020.5 hPa | 0 mm | - | 0 W/m² | - |
| 1777529344 | 7.22° C | 94% | 1020.4 hPa | 0 mm | - | 0 W/m² | - |
| 1777529041 | 6.67° C | 94% | 1020.6 hPa | 0 mm | - | 0 W/m² | - |
| 1777528736 | 7.22° C | 93% | 1020.6 hPa | 0 mm | - | 0 W/m² | - |
| 1777528433 | 7.22° C | 93% | 1020.5 hPa | 0 mm | - | 0 W/m² | - |
| 1777528132 | 7.78° C | 93% | 1020.4 hPa | 0 mm | - | 0 W/m² | - |
| 1777527829 | 7.78° C | 93% | 1020.4 hPa | 0 mm | - | 0 W/m² | - |
| 1777527529 | 7.78° C | 92% | 1020.6 hPa | 0 mm | - | 0 W/m² | - |
| 1777527225 | 7.78° C | 92% | 1020.3 hPa | 0 mm | - | 0 W/m² | - |
| 1777526921 | 7.78° C | 92% | 1020.4 hPa | 0 mm | - | 0 W/m² | - |
| 1777526616 | 7.22° C | 91% | 1020.3 hPa | 0 mm | - | 0 W/m² | - |
| 1777526311 | 7.78° C | 91% | 1020.3 hPa | 0 mm | - | 0 W/m² | - |
| 1777526007 | 7.78° C | 91% | 1020.4 hPa | 0 mm | - | 0 W/m² | - |
* Rain latest hour (hover to see other rain measurements)
** Current wind speed in m/s (hover to see current wind gust speed)